Rechercher aéroport 
image banner adimage banner adimage banner ad
image banner ad

KMMH - Mammoth Yosemite

Situé à Mammoth Lakes, United States

ICAO - MMH, IATA - MMH

Données fournies par Airmate  

Information générale

Coordonnées: N37°37'27" W118°50'20"
Élévation : 7135 feet MSL.
Variation magnétique : 15° East
Voir autres Aéroports à California

Données opérationnelles

Special qualification required
Heure actuelle UTC:
Heure actuelle locale:
Météo
METAR: KMMH 020535Z AUTO 00000KT 10SM CLR 18/01 A3045 RMK AO2
TAF: KMMH 012332Z 0200/0224 29010G18KT P6SM SCT090 BKN110 FM020300 23008KT P6SM SCT080 SCT200 FM021500 12008KT P6SM SCT080
Voir NOTAMs / SUP AIP / TFR affectant cet aéroport [VIEW]
Fréquences de communication: [VIEW]

Pistes:

Identifiant RWYQFULongueur (ft)Largeur (ft)SurfaceLDA (ft)
09109°7000100ASPH7000
27289°7000100ASPH7000

Coordonnées de l'aéroport

Adresse: Mammoth Lakes United States

Vue satellite de KMMH